FW0472 Weather Reports


Display with metric or nautical units.
time (UTC)temp
F
wind
direction
speed
MPH
gust
MPH
rain 1hr
in
rain 24hr
in
rain mn
in
humidity
%
barometer
mb
20260903130713 63 12 0.0 0.0 0.00 0.02 0.02 96 1040.9
20260903130208 62 345 0.0 0.0 0.00 0.02 0.02 96 1041.1
20260903125706 62 346 0.0 0.0 0.00 0.02 0.02 96 1041.3
20260903125202 62 342 0.0 0.0 0.00 0.02 0.02 96 1041.2
20260903124655 62 344 0.0 0.0 0.00 0.02 0.02 96 1041.2
20260903124150 62 336 0.0 0.0 0.00 0.02 0.02 97 1041.3
20260903123649 62 344 0.0 0.0 0.00 0.02 0.02 97 1041.1
20260903123148 61 345 0.0 0.0 0.00 0.02 0.02 97 1041.3
20260903122648 61 346 0.0 0.0 0.00 0.02 0.02 97 1041.2
20260903122143 61 342 0.0 0.0 0.00 0.02 0.02 97 1041.4
20260903121641 61 349 0.0 0.0 0.00 0.02 0.02 97 1041.4
20260903121137 61 324 0.0 0.0 0.00 0.02 0.02 97 1041.4
20260903120636 61 324 0.0 0.0 0.00 0.02 0.02 97 1041.4
20260903120131 61 313 0.0 0.0 0.00 0.02 0.02 97 1041.6
20260903115629 61 354 0.0 0.0 0.00 0.02 0.02 97 1041.4
20260903115125 61 318 0.0 0.0 0.00 0.02 0.02 97 1041.5
20260903114620 61 318 0.0 0.0 0.00 0.02 0.02 97 1041.5
20260903114115 61 318 0.0 0.0 0.00 0.02 0.02 97 1041.6
20260903113610 61 1 0.0 0.0 0.00 0.02 0.02 97 1041.8
20260903113106 61 352 0.0 0.0 0.00 0.02 0.02 97 1041.8
20260903112602 61 323 0.0 0.0 0.00 0.02 0.02 97 1041.6
20260903112057 61 329 0.0 0.0 0.00 0.02 0.02 97 1041.7
20260903111555 61 340 0.0 0.0 0.00 0.02 0.02 97 1041.6
20260903111052 61 340 0.0 0.0 0.00 0.02 0.02 97 1041.7
20260903110547 61 342 0.0 0.0 0.00 0.02 0.02 98 1041.6
20260903110042 61 342 0.0 0.0 0.00 0.02 0.02 98 1041.7
20260903105537 61 342 0.0 0.0 0.00 0.02 0.02 98 1041.6
20260903105032 61 342 0.0 0.0 0.00 0.02 0.02 98 1041.5
20260903104531 61 343 0.0 0.0 0.00 0.02 0.02 98 1041.6
20260903104027 61 343 0.0 0.0 0.00 0.02 0.02 98 1041.5
20260903103524 61 349 0.0 0.0 0.00 0.02 0.02 98 1041.6
20260903103020 61 345 0.0 0.0 0.00 0.02 0.02 97 1041.6
20260903102515 61 344 0.0 0.0 0.00 0.02 0.02 97 1041.5
20260903102014 61 348 0.0 0.0 0.00 0.02 0.02 97 1041.7
20260903101508 61 313 0.0 0.0 0.00 0.02 0.02 97 1041.6
20260903101004 61 316 0.0 0.0 0.00 0.02 0.02 97 1041.3
20260903100458 61 324 0.0 0.0 0.00 0.02 0.02 97 1041.3
20260903095955 61 350 0.0 0.0 0.00 0.02 0.02 97 1041.3
20260903095450 61 333 0.0 0.0 0.00 0.02 0.02 97 1041.3
20260903094945 61 319 0.0 0.0 0.00 0.02 0.02 97 1041.5
20260903094445 61 342 0.0 0.0 0.00 0.02 0.02 97 1041.5
20260903093941 61 324 0.0 0.0 0.00 0.02 0.02 97 1041.7
20260903093436 61 322 0.0 0.0 0.00 0.02 0.02 97 1041.6
20260903092932 61 344 0.0 0.0 0.00 0.02 0.02 97 1041.6
20260903092431 61 347 0.0 0.0 0.00 0.02 0.02 97 1041.4
20260903091930 61 293 0.0 0.0 0.00 0.02 0.02 97 1041.4
20260903091429 61 333 0.0 0.0 0.00 0.02 0.02 97 1041.5
20260903090924 61 333 0.0 0.0 0.00 0.02 0.02 97 1041.8
20260903090420 61 344 0.0 0.0 0.00 0.02 0.02 97 1041.7
20260903085918 61 329 0.0 0.0 0.00 0.02 0.02 97 1041.8
20260903085416 61 317 0.0 0.0 0.00 0.02 0.02 97 1041.7
20260903084916 60 318 0.0 0.0 0.00 0.02 0.02 98 1041.7
20260903084415 61 326 0.0 0.0 0.00 0.02 0.02 98 1041.8
20260903083910 61 325 0.0 0.0 0.00 0.02 0.02 98 1041.7
20260903083407 61 341 0.0 0.0 0.00 0.02 0.02 98 1041.9
20260903082905 61 353 0.0 0.0 0.00 0.02 0.02 98 1041.9
20260903082400 61 353 0.0 0.0 0.00 0.02 0.02 98 1042.0
20260903081855 61 345 0.0 0.0 0.00 0.02 0.02 98 1042.2
20260903081350 60 5 0.0 0.0 0.00 0.02 0.02 98 1042.1
20260903080847 60 317 0.0 0.0 0.00 0.02 0.02 98 1042.0
20260903080344 60 317 0.0 0.0 0.00 0.02 0.02 99 1042.0
20260903075843 60 350 0.0 0.0 0.00 0.02 0.02 99 1042.0
20260903075339 60 312 0.0 1.0 0.00 0.02 0.02 99 1042.1
20260903074833 60 353 1.0 1.0 0.00 0.02 0.02 99 1042.2
20260903074327 60 355 0.0 0.0 0.00 0.02 0.02 99 1042.3
20260903073823 60 349 0.0 0.0 0.00 0.02 0.02 99 1042.4
20260903073318 60 323 0.0 0.0 0.00 0.02 0.02 99 1042.7
20260903072814 60 347 0.0 0.0 0.00 0.02 0.02 99 1042.5
20260903072310 60 337 0.0 0.0 0.00 0.02 0.02 99 1042.4
20260903071806 60 335 0.0 0.0 0.00 0.02 0.02 99 1042.5
20260903071256 60 335 0.0 0.0 0.00 0.02 0.02 99 1042.4
20260903070756 60 355 0.0 0.0 0.00 0.02 0.02 99 1042.4
20260903070251 60 344 0.0 0.0 0.00 0.02 0.02 99 1042.5
20260903065741 60 340 0.0 0.0 0.00 0.02 0.02 98 1042.5
20260903065240 60 328 0.0 0.0 0.00 0.02 0.02 98 1042.6
20260903064739 60 351 0.0 0.0 0.00 0.02 0.02 98 1042.5
20260903064235 60 346 0.0 0.0 0.00 0.02 0.02 98 1042.7
20260903063731 60 347 0.0 0.0 0.00 0.02 0.02 98 1042.6
20260903063231 61 352 0.0 0.0 0.07 0.02 0.02 98 1042.4
20260903062722 61 358 0.0 0.0 0.07 0.02 0.02 98 1042.5
20260903062221 61 351 0.0 0.0 0.00 0.01 0.01 97 1042.7
20260903061718 61 344 0.0 0.0 0.00 0.01 0.01 97 1043.1
20260903061216 61 344 0.0 0.0 0.00 0.01 0.01 96 1042.9
20260903060711 61 341 0.0 0.0 0.05 0.01 0.01 96 1043.0
20260903060206 62 345 0.0 0.0 0.00 0.00 0.00 95 1042.8
20260903055704 62 16 0.0 0.0 0.00 0.00 0.00 95 1042.8
20260903055202 62 53 0.0 0.0 0.00 0.00 0.00 94 1042.8
20260903054657 62 78 1.0 2.0 0.00 0.00 0.00 94 1042.9
20260903054153 62 83 1.0 2.0 0.00 0.00 0.00 92 1042.7
20260903053649 62 92 0.0 0.0 0.00 0.00 0.00 91 1043.0
20260903053144 63 358 0.0 0.0 0.00 0.00 0.00 91 1043.5
20260903052640 63 71 0.0 0.0 0.00 0.00 0.00 91 1043.5
20260903052135 63 23 0.0 0.0 0.00 0.00 0.00 91 1043.6
20260903051630 63 50 0.0 0.0 0.00 0.00 0.00 90 1043.4
20260903051125 63 357 0.0 0.0 0.00 0.00 0.00 91 1043.5
20260903050620 63 37 0.0 0.0 0.00 0.00 0.00 90 1043.6
20260903050115 63 15 0.0 0.0 0.00 0.00 0.00 91 1043.8
20260903045614 63 30 0.0 0.0 0.00 0.00 0.00 90 1043.7
20260903045111 63 61 0.0 0.0 0.00 0.00 0.00 90 1043.6
20260903044606 63 83 0.0 0.0 0.00 0.00 0.00 90 1043.4
20260903044102 63 81 2.0 3.0 0.00 0.00 0.00 90 1043.3
20260903043558 63 50 0.0 1.0 0.00 0.00 0.00 90 1043.7
20260903043057 63 25 0.0 0.0 0.00 0.00 0.00 90 1043.8
20260903042552 63 10 0.0 0.0 0.00 0.00 0.00 90 1043.6
20260903042047 63 33 0.0 0.0 0.00 0.00 0.00 90 1043.5
20260903041544 63 95 0.0 1.0 0.00 0.00 0.00 90 1043.7
20260903041039 63 33 0.0 0.0 0.00 0.00 0.00 90 1043.8
20260903040537 63 56 0.0 1.0 0.00 0.00 0.00 90 1043.5
20260903040034 63 88 0.0 1.0 0.00 0.00 0.00 89 1043.6
20260903035529 63 75 0.0 0.0 0.00 0.00 0.00 90 1043.7
20260903035026 63 72 0.0 1.0 0.00 0.00 0.00 89 1043.6
20260903034525 63 29 1.0 1.0 0.00 0.00 0.00 89 1043.7
20260903034021 63 75 0.0 1.0 0.00 0.00 0.00 89 1043.8
20260903033515 64 51 0.0 0.0 0.00 0.00 0.00 89 1044.2
20260903033011 64 343 0.0 0.0 0.00 0.00 0.00 89 1044.2
20260903032506 64 351 0.0 0.0 0.00 0.00 0.00 89 1044.3
20260903032001 64 55 0.0 0.0 0.00 0.00 0.00 89 1044.3
20260903031500 64 4 0.0 0.0 0.00 0.00 0.00 90 1044.5
20260903030956 64 29 0.0 0.0 0.00 0.00 0.00 89 1044.3
20260903030452 64 54 0.0 0.0 0.00 0.00 0.00 89 1044.5
20260903025947 64 19 0.0 0.0 0.00 0.00 0.00 90 1044.4
20260903025443 64 52 0.0 0.0 0.00 0.00 0.00 89 1044.8
20260903024939 64 31 0.0 0.0 0.00 0.00 0.00 89 1044.7
20260903024437 64 55 0.0 0.0 0.00 0.00 0.00 90 1044.9
20260903023932 64 52 0.0 0.0 0.00 0.00 0.00 89 1045.0
20260903023429 64 13 0.0 0.0 0.00 0.00 0.00 90 1044.8
20260903022923 64 304 0.0 0.0 0.00 0.00 0.00 90 1044.8
20260903022423 64 3 0.0 0.0 0.00 0.00 0.00 90 1044.7
20260903021921 64 37 0.0 0.0 0.00 0.00 0.00 90 1044.5
20260903021416 64 29 0.0 0.0 0.00 0.00 0.00 90 1044.9
20260903020911 64 67 0.0 0.0 0.00 0.00 0.00 90 1044.9
20260903020406 64 83 1.0 1.0 0.00 0.00 0.00 90 1044.9
20260903015901 64 94 1.0 1.0 0.00 0.00 0.00 91 1044.9
20260903015356 64 17 0.0 0.0 0.00 0.00 0.00 90 1045.4
20260903014851 64 5 0.0 0.0 0.00 0.00 0.00 90 1045.5
20260903014346 64 13 0.0 0.0 0.00 0.00 0.00 90 1045.3
20260903013841 64 77 0.0 0.0 0.00 0.00 0.00 90 1044.9
20260903013340 64 47 0.0 0.0 0.00 0.00 0.00 90 1045.0
20260903012839 64 43 0.0 0.0 0.00 0.00 0.00 90 1045.4
20260903012333 64 33 1.0 2.0 0.00 0.00 0.00 90 1045.2
20260903011833 64 69 0.0 0.0 0.00 0.00 0.00 90 1045.3
20260903011333 64 12 0.0 0.0 0.00 0.00 0.00 90 1045.0
20260903010828 64 97 0.0 0.0 0.00 0.00 0.00 90 1045.0
20260903010324 64 98 0.0 2.0 0.00 0.00 0.00 90 1045.3
20260903005822 64 339 1.0 2.0 0.00 0.00 0.00 91 1044.9
20260903005317 64 88 1.0 1.0 0.00 0.00 0.00 90 1045.3
20260903004813 64 81 0.0 1.0 0.00 0.00 0.00 90 1045.0
20260903004308 64 92 0.0 1.0 0.00 0.00 0.00 90 1045.0
20260903003803 64 82 1.0 1.0 0.00 0.00 0.00 90 1045.0
20260903003258 64 91 2.0 2.0 0.00 0.00 0.00 90 1044.7
20260903002753 64 51 0.0 0.0 0.00 0.00 0.00 90 1044.9
20260903002252 64 33 0.0 1.0 0.00 0.00 0.00 90 1044.8
20260903001748 64 76 0.0 0.0 0.00 0.00 0.00 90 1044.5
20260903001248 64 25 0.0 0.0 0.00 0.00 0.00 90 1044.8
20260903000742 64 69 0.0 0.0 0.00 0.00 0.00 91 1044.8
20260903000237 64 52 0.0 0.0 0.00 0.00 0.00 90 1044.5
20260902235736 64 97 1.0 1.0 0.00 0.00 0.00 90 1044.7
20260902235231 64 97 1.0 2.0 0.00 0.00 0.00 90 1044.3
20260902234731 64 86 1.0 1.0 0.00 0.00 0.00 90 1044.6
20260902234230 64 79 1.0 2.0 0.00 0.00 0.00 92 1044.8
20260902233730 64 46 0.0 0.0 0.00 0.00 0.00 91 1044.6
20260902233224 64 39 0.0 0.0 0.00 0.00 0.00 91 1044.5
20260902232722 64 84 0.0 1.0 0.00 0.00 0.00 91 1044.7
20260902232217 64 81 0.0 0.0 0.00 0.00 0.00 91 1044.7
20260902231711 64 83 0.0 1.0 0.00 0.00 0.00 92 1044.9
20260902231206 64 25 1.0 2.0 0.00 0.00 0.00 91 1045.0
20260902230702 64 87 0.0 1.0 0.00 0.00 0.00 91 1045.2
20260902230200 64 92 0.0 1.0 0.00 0.00 0.00 91 1045.6
20260902225655 65 90 0.0 0.0 0.00 0.00 0.00 91 1046.0
20260902225155 65 77 0.0 0.0 0.00 0.00 0.00 90 1046.4
20260902224653 65 30 0.0 0.0 0.00 0.00 0.00 90 1046.2
20260902224149 65 66 0.0 0.0 0.00 0.00 0.00 90 1046.3
20260902223645 65 50 0.0 0.0 0.00 0.00 0.00 90 1046.5
20260902223144 65 54 0.0 0.0 0.00 0.00 0.00 91 1046.5
20260902222643 65 61 0.0 0.0 0.00 0.00 0.00 90 1046.6
20260902222142 65 71 0.0 0.0 0.00 0.00 0.00 90 1046.5
20260902221637 65 84 0.0 0.0 0.00 0.00 0.00 90 1046.6
20260902221132 65 73 0.0 0.0 0.00 0.00 0.00 90 1046.6
20260902220628 65 77 0.0 1.0 0.00 0.00 0.00 90 1046.6
20260902220127 65 3 0.0 0.0 0.00 0.00 0.00 90 1046.8
20260902215623 66 47 0.0 0.0 0.00 0.00 0.00 89 1046.7
20260902215118 65 75 0.0 0.0 0.00 0.00 0.00 89 1046.6
20260902214614 66 61 0.0 0.0 0.00 0.00 0.00 90 1046.6
20260902214112 66 76 0.0 0.0 0.00 0.00 0.00 89 1046.4
20260902213609 66 90 0.0 1.0 0.00 0.00 0.00 89 1046.5
20260902213107 66 28 0.0 0.0 0.00 0.00 0.00 88 1046.5
20260902212603 66 46 0.0 0.0 0.00 0.00 0.00 89 1046.6
20260902212059 66 55 0.0 0.0 0.00 0.00 0.00 88 1046.4
20260902211555 66 46 0.0 0.0 0.00 0.00 0.00 88 1046.4
20260902211050 66 29 0.0 0.0 0.00 0.00 0.00 89 1046.4
20260902210549 66 16 0.0 0.0 0.00 0.00 0.00 88 1046.5
20260902210044 66 86 0.0 0.0 0.00 0.00 0.00 89 1046.6
20260902205543 66 327 0.0 0.0 0.00 0.00 0.00 89 1046.8
20260902205039 66 14 0.0 0.0 0.00 0.00 0.00 87 1046.9
20260902204539 66 355 0.0 0.0 0.00 0.00 0.00 88 1047.0
20260902204034 66 2 0.0 0.0 0.00 0.00 0.00 88 1047.1
20260902203529 66 16 0.0 0.0 0.00 0.00 0.00 87 1047.0
20260902203028 66 317 0.0 0.0 0.00 0.00 0.00 85 1047.2
20260902202524 67 24 0.0 0.0 0.00 0.00 0.00 86 1046.8
20260902202021 66 352 0.0 0.0 0.00 0.00 0.00 88 1046.8
20260902201516 66 355 0.0 0.0 0.00 0.00 0.00 87 1046.9
20260902201015 66 54 0.0 0.0 0.00 0.00 0.00 88 1047.0
20260902200511 66 26 0.0 0.0 0.00 0.00 0.00 86 1046.9
20260902200007 67 57 0.0 1.0 0.00 0.00 0.00 86 1046.8
20260902195503 67 71 1.0 1.0 0.00 0.00 0.00 86 1046.8
20260902195001 66 74 0.0 0.0 0.00 0.00 0.00 87 1046.9
20260902194500 66 67 0.0 0.0 0.00 0.00 0.00 87 1047.0
20260902193956 66 91 0.0 1.0 0.00 0.00 0.00 88 1047.1
20260902193451 66 99 1.0 1.0 0.00 0.00 0.00 87 1046.9
20260902192950 66 90 1.0 1.0 0.00 0.00 0.00 87 1046.9
20260902192444 66 46 0.0 0.0 0.00 0.00 0.00 88 1046.9
20260902191943 66 18 0.0 0.0 0.00 0.00 0.00 86 1047.3
20260902191438 67 325 0.0 0.0 0.00 0.00 0.00 84 1047.3
20260902190933 67 341 0.0 1.0 0.00 0.00 0.00 86 1047.2
20260902190429 67 61 0.0 0.0 0.00 0.00 0.00 86 1047.0
20260902185924 66 31 0.0 0.0 0.00 0.00 0.00 87 1047.1
20260902185421 66 348 0.0 1.0 0.00 0.00 0.00 87 1047.3
20260902184915 66 52 0.0 0.0 0.00 0.00 0.00 89 1047.4
20260902184410 65 63 0.0 0.0 0.00 0.00 0.00 89 1047.6
20260902183906 65 25 0.0 0.0 0.00 0.00 0.00 89 1047.7
20260902183402 65 71 0.0 0.0 0.00 0.00 0.00 88 1047.5
20260902182858 65 50 0.0 0.0 0.00 0.00 0.00 88 1047.8
20260902182354 65 59 0.0 0.0 0.00 0.00 0.00 89 1047.9
20260902181850 65 357 0.0 0.0 0.00 0.00 0.00 89 1048.0
20260902181345 65 33 0.0 0.0 0.00 0.00 0.00 88 1048.0
20260902180839 65 34 0.0 0.0 0.00 0.00 0.00 89 1047.7
20260902180335 65 53 1.0 1.0 0.00 0.00 0.00 88 1047.8
20260902175830 65 53 0.0 0.0 0.00 0.00 0.00 88 1047.7
20260902175325 65 71 1.0 2.0 0.00 0.00 0.00 88 1047.4
20260902174821 65 86 0.0 0.0 0.00 0.00 0.00 88 1047.5
20260902174318 65 67 1.0 1.0 0.00 0.00 0.00 88 1047.4
20260902173813 65 61 0.0 0.0 0.00 0.00 0.00 88 1047.4
20260902173313 65 74 0.0 0.0 0.00 0.00 0.00 88 1047.4
20260902172813 65 79 0.0 0.0 0.00 0.00 0.00 87 1047.7
20260902172308 65 82 0.0 0.0 0.00 0.00 0.00 89 1047.5
20260902171802 65 80 0.0 0.0 0.00 0.00 0.00 88 1047.8
20260902171257 65 262 0.0 0.0 0.00 0.00 0.00 87 1047.7
20260902170754 65 17 0.0 0.0 0.00 0.00 0.00 87 1047.9
20260902170249 65 62 0.0 0.0 0.00 0.00 0.00 87 1048.0
20260902165744 65 33 0.0 0.0 0.00 0.00 0.00 89 1047.9
20260902165244 65 39 0.0 0.0 0.00 0.00 0.00 87 1047.9
20260902164738 65 88 0.0 0.0 0.00 0.00 0.00 87 1048.3
20260902164233 65 69 0.0 0.0 0.00 0.00 0.00 87 1048.2
20260902163728 65 85 1.0 1.0 0.00 0.00 0.00 86 1048.1
20260902163227 66 94 1.0 2.0 0.00 0.00 0.00 88 1047.9
20260902162726 66 104 2.0 2.0 0.00 0.00 0.00 86 1048.0
20260902162221 65 5 0.0 0.0 0.00 0.00 0.00 86 1047.7
20260902161716 65 46 0.0 1.0 0.00 0.00 0.00 87 1047.7
20260902161211 65 85 0.0 0.0 0.00 0.00 0.00 87 1047.9
20260902160709 65 39 0.0 0.0 0.00 0.00 0.00 88 1047.9
20260902160202 65 83 0.0 1.0 0.00 0.00 0.00 88 1048.2
20260902155701 64 26 0.0 0.0 0.00 0.00 0.00 89 1048.1
20260902155159 65 58 0.0 0.0 0.00 0.00 0.00 87 1048.2
20260902154654 65 88 0.0 1.0 0.00 0.00 0.00 87 1048.2
20260902154148 65 75 0.0 0.0 0.00 0.00 0.00 89 1048.2
20260902153643 65 47 0.0 0.0 0.00 0.00 0.00 88 1048.4
20260902153138 65 279 0.0 0.0 0.00 0.00 0.00 84 1048.6
20260902152634 65 94 0.0 1.0 0.00 0.00 0.00 84 1048.7
20260902152129 65 99 0.0 1.0 0.00 0.00 0.00 87 1048.8
20260902151625 65 38 0.0 1.0 0.00 0.00 0.00 88 1048.8
20260902151119 65 19 0.0 0.0 0.00 0.00 0.00 88 1048.7
20260902150614 65 31 0.0 0.0 0.00 0.00 0.00 82 1048.7
20260902150109 66 33 0.0 0.0 0.00 0.00 0.00 87 1049.0
20260902145604 66 221 0.0 1.0 0.00 0.00 0.00 81 1048.8
20260902145103 65 307 0.0 0.0 0.00 0.00 0.00 83 1048.8
20260902144600 65 10 0.0 0.0 0.00 0.00 0.00 83 1048.4
20260902144055 65 289 0.0 0.0 0.00 0.00 0.00 82 1048.6
20260902143550 65 337 0.0 0.0 0.00 0.00 0.00 83 1048.6
20260902143046 65 333 0.0 0.0 0.00 0.00 0.00 85 1048.6
20260902142543 64 287 0.0 0.0 0.00 0.00 0.00 85 1048.6
20260902142036 65 39 0.0 0.0 0.00 0.00 0.00 85 1048.5
20260902141536 64 202 0.0 0.0 0.00 0.00 0.00 86 1048.4
20260902141031 64 164 0.0 1.0 0.00 0.00 0.00 88 1048.4
20260902140526 64 231 0.0 1.0 0.00 0.00 0.00 86 1048.5
20260902140022 64 299 0.0 0.0 0.00 0.00 0.00 89 1048.3
20260902135520 64 321 0.0 0.0 0.00 0.00 0.00 89 1048.4
20260902135016 63 329 0.0 0.0 0.00 0.00 0.00 89 1048.3
20260902134511 63 17 0.0 0.0 0.00 0.00 0.00 91 1048.2
20260902134006 63 285 0.0 0.0 0.00 0.00 0.00 92 1048.3
20260902133501 63 310 0.0 0.0 0.00 0.00 0.00 94 1048.1
20260902132955 62 337 0.0 0.0 0.00 0.00 0.00 95 1047.9
20260902132451 62 358 0.0 0.0 0.00 0.00 0.00 94 1047.7
20260902131945 62 353 0.0 0.0 0.00 0.00 0.00 95 1048.0
20260902131442 62 13 0.0 0.0 0.00 0.00 0.00 96 1047.7